SKYTERRA 1

Last updated on Tue Sep 16 2025 00:02:47 GMT+0000 (Coordinated Universal Time)

1 37218U 10061A 25258.56446919 -.00000133 00000+0 00000+0 0 9991 2 37218 4.5383 50.7834 0003823 169.9650 235.9085 1.00271095 54449
UTC large
Height (km)
Speed (km/s)
/
Latitude / Longitude
Inclination (degrees)
Orbital Period (minutes)
Azimuth
Elevation
Range (km)
Doppler Factor

Next 0 passes for location: London (51.5072 / 0.1276)

Sorry there are no passes over London.